Location: Most
(50.5330°N, 13.6500°E)
Time: 20:39:04
(UTC+02:00)

ISS - Visible Passes

Search period start: 16 July 2018 00:00
Search period end: 26 July 2018 00:00
Orbit: 402 x 408 km, 51.6° (Epoch: 17 July)

Date Brightness Start Highest point End Pass type
(mag) Time Alt. Az. Time Alt. Az. Time Alt. Az.
16 Jul -2.8 00:59:18 32° ESE 00:59:18 32° ESE 01:01:28 10° E visible
16 Jul -3.7 02:31:56 14° W 02:34:43 75° N 02:38:01 10° E visible
16 Jul -3.8 04:08:01 10° WNW 04:11:20 87° NNE 04:14:38 10° ESE visible
17 Jul -1.6 00:08:35 14° E 00:08:35 14° E 00:09:16 10° E visible
17 Jul -3.9 01:41:12 32° WSW 01:42:37 88° N 01:45:56 10° ENE visible
17 Jul -3.6 03:15:55 10° W 03:19:13 75° N 03:22:31 10° E visible
18 Jul -4.0 00:50:12 64° SSW 00:50:32 73° SSE 00:53:49 10° ENE visible
18 Jul -3.6 02:23:48 10° W 02:27:05 70° N 02:30:23 10° E visible
18 Jul -3.9 04:00:21 10° WNW 04:03:37 66° SSW 04:06:54 10° ESE visible
18 Jul -3.8 23:58:11 49° S 23:58:29 51° SSE 00:01:42 10° ENE visible
19 Jul -3.6 01:31:39 10° W 01:34:56 72° N 01:38:15 10° E visible
19 Jul -3.9 03:08:13 10° WNW 03:11:32 87° SSW 03:14:51 10° ESE visible
19 Jul -3.2 23:03:27 10° SW 23:06:27 34° SSE 23:09:30 10° E visible
20 Jul -3.8 00:39:30 10° W 00:42:48 82° NNW 00:46:06 10° ENE visible
20 Jul -3.7 02:16:06 10° WNW 02:19:24 78° N 02:22:42 10° E visible
20 Jul -3.4 03:52:40 10° W 03:55:47 39° SSW 03:58:53 10° SE visible
20 Jul -2.6 22:11:51 10° SSW 22:14:29 23° SE 22:17:09 10° E visible
20 Jul -4.0 23:47:23 10° WSW 23:50:40 80° SSE 23:53:57 10° ENE visible
21 Jul -3.6 01:23:57 10° W 01:27:14 71° N 01:30:32 10° E visible
21 Jul -3.8 03:00:29 10° WNW 03:03:44 58° SSW 03:06:59 10° ESE visible
21 Jul -3.9 22:55:19 10° WSW 22:58:33 59° SSE 23:01:48 10° ENE visible
22 Jul -3.6 00:31:46 10° W 00:35:03 71° N 00:38:21 10° E visible
22 Jul -4.0 02:08:19 10° WNW 02:11:38 79° SSW 02:14:55 10° ESE visible
22 Jul -2.6 03:45:09 10° W 03:47:48 22° SW 03:50:26 10° SSE visible
22 Jul -3.4 22:03:23 10° SW 22:06:28 40° SSE 22:09:36 10° E visible
22 Jul -3.7 23:39:35 10° W 23:42:52 78° N 23:46:10 10° ENE visible
23 Jul -3.9 01:16:10 10° WNW 01:19:28 83° N 01:20:45 34° E visible
23 Jul -1.5 02:52:46 10° W 02:53:15 13° W 02:53:15 13° W visible
23 Jul -3.9 22:47:24 10° WSW 22:50:41 88° SSE 22:53:59 10° ENE visible
24 Jul -3.7 00:23:59 10° W 00:27:17 73° N 00:29:02 25° E visible
24 Jul -1.8 02:00:31 10° W 02:01:37 19° W 02:01:37 19° W visible
24 Jul -3.9 21:55:16 10° WSW 21:58:31 67° SSE 22:01:48 10° ENE visible
24 Jul -3.6 23:31:47 10° W 23:35:03 70° N 23:38:00 12° E visible
25 Jul -3.0 01:08:19 10° WNW 01:10:37 41° W 01:10:37 41° W visible
25 Jul -3.6 22:39:33 10° W 22:42:49 74° N 22:46:07 10° E visible
